{"data":{"norad_id":68110,"epoch":"2026-09-20T03:49:14.182752Z","epoch_age_seconds":85521,"freshness":"FRESH","line1":"1 68110U 26044K   26263.15919193  .00017147  00000+0  53202-3 0  9993","line2":"2 68110  97.2858 222.0871 0001899  93.9366 266.2094 15.33458583 31381","mean_motion":15.33458583,"eccentricity":0.0001899,"inclination_deg":97.2858,"raan_deg":222.0871,"arg_perigee_deg":93.9366,"mean_anomaly_deg":266.2094,"bstar":0.00053202,"rev_number":3138,"period_min":93.905372858707,"perigee_km":464.20315413422,"apogee_km":466.80236851557,"semimajor_km":6843.6397613249,"source":"CELESTRAK","updated_at":"2026-09-20T09:00:43.786911Z"}}